Location: Vancouver
(49.2500°N, 123.1330°W)
Time: 02:27:33
(UTC-08:00)

Daily predictions for brighter satellites

Satellite Brightness Start Highest point End
(mag) Time Altitude Azimuth Time Altitude Azimuth Time Altitude Azimuth
ATLAS 2AS CENTAUR R/B 4.1 03:53:45 36° N 03:54:59 38° NNE 04:02:15 10° E
USA 234 3.8 04:16:46 10° ENE 04:22:51 47° N 04:22:51 47° N
NOSS 3-1 (C) 4.0 04:26:37 70° SSE 04:26:37 70° SSE 04:33:53 10° SE
ADEOS II 3.9 04:28:31 10° NNE 04:30:25 23° NNE 04:30:25 23° NNE
Cosmos 2233 Rocket 4.2 04:37:59 48° SSE 04:39:42 69° E 04:46:00 10° NNE
Cosmos 2297 Rocket 3.4 04:45:59 32° N 04:45:59 32° N 04:49:05 10° NNE
SeaSat 1 3.0 04:43:57 10° NE 04:48:49 55° ESE 04:48:49 55° ESE
Cosmos 923 Rocket 4.2 04:55:39 70° ENE 04:55:39 70° ENE 05:00:48 10° SSE
Cosmos 2221 4.1 04:52:04 10° SSE 04:55:57 34° E 04:59:50 10° NNE
Cosmos 2227 Rocket 3.6 04:59:41 26° N 04:59:41 26° N 05:02:34 10° NNE
SKYMED 2 4.4 04:56:17 10° SSE 04:59:46 49° ESE 04:59:46 49° ESE
Cosmos 1680 Rocket 3.9 05:00:57 47° N 05:02:15 63° ENE 05:07:32 10° SE
Okean-O 4.4 04:59:35 10° NNE 05:01:21 24° NNE 05:01:21 24° NNE
Cosmos 968 Rocket 3.7 05:10:43 58° N 05:10:43 58° N 05:15:05 10° NNE
Meteor 1-16 Rocket 4.0 05:09:51 26° S 05:12:57 83° E 05:18:18 10° NNE
Cosmos 1943 3.3 05:12:35 39° NNW 05:14:44 74° ENE 05:20:26 10° SE
Coronas F rocket 4.5 05:27:11 10° SE 05:27:11 10° SE 05:27:14 10° SE
Meteor 1-11 4.2 05:23:32 40° NNW 05:25:34 65° W 05:31:17 10° S
Cosmos 389 Rocket 4.5 05:32:59 10° SSE 05:36:15 31° E 05:39:33 10° NNE
Cosmos 2263 Rocket 3.6 05:31:37 10° S 05:36:49 38° ESE 05:42:02 10° NE
Cosmos 1464 Rocket 4.0 05:31:24 10° S 05:37:43 85° E 05:43:59 10° N
NOSS 3-1 (A) 4.3 05:36:05 38° W 05:38:12 45° WSW 05:45:57 10° S
Cosmos 2112 Rocket 3.9 05:36:06 32° NNW 05:38:41 80° WSW 05:44:02 10° SSE
Feng Yun 1-1 Rocket 4.2 05:35:33 10° N 05:40:53 55° WNW 05:43:41 28° SW
Cosmos 1603 4.2 05:41:33 37° WSW 05:41:33 37° WSW 05:46:07 10° S
Cosmos 1805 Rocket 3.4 05:44:38 34° NNW 05:46:27 69° W 05:50:49 10° S
ATLAS 2AS CENTAUR R/B 3.0 05:41:12 21° NW 05:47:07 85° NE 05:54:49 10° SE
BREEZE-M DEB (TANK) 2.2 05:47:41 80° SE 05:47:41 80° SE 05:49:49 10° ESE
COSMO-SKYMED 1 2.7 05:44:24 10° S 05:48:21 48° WSW 05:48:21 48° WSW
CZ-2C R/B 4.4 05:44:48 10° NE 05:48:45 28° E 05:52:41 10° SSE
CSL-04 Rocket 4.3 05:44:10 10° NNE 05:49:23 55° E 05:54:33 10° S
NOAA 6 4.0 05:44:48 10° N 05:49:57 65° WNW 05:55:05 10° SSW
Cosmos 1908 4.3 05:46:27 10° SSE 05:50:06 45° E 05:53:47 10° NNE
Cosmos 1072 Rocket 4.4 05:54:01 10° SSW 06:00:06 63° WNW 06:06:11 10° N
Sich 1 2.9 05:56:02 10° NNW 06:00:22 75° W 06:04:39 10° S
Cosmos 1777 Rocket 4.1 05:58:03 23° SW 06:01:03 51° WNW 06:06:08 10° NNE
APEX 4.4 05:59:47 10° S 06:03:00 35° ESE 06:05:46 10° NE
Tiangong 2 3.2 06:03:10 16° SSW 06:04:22 20° SSE 06:06:47 10° ESE
USA 234 3.3 05:59:02 10° ESE 06:05:34 75° NNE 06:10:12 21° NW
Meteor 2-1 Rocket 4.3 06:01:38 10° SSW 06:07:13 58° WNW 06:13:00 10° N
Cosmos 292 Rocket 4.4 06:07:07 31° W 06:07:31 32° WSW 06:11:46 10° SSW
Cosmos 1356 Rocket 3.8 06:07:30 36° WNW 06:08:14 39° W 06:12:07 10° SSW
Cosmos 1626 2.4 06:09:06 38° WNW 06:09:45 42° W 06:13:17 10° SSW
Cosmos 1633 Rocket 2.9 06:05:44 10° NNW 06:10:05 67° W 06:14:23 10° S
ADEOS II 3.7 06:09:27 10° NNW 06:11:22 16° NW 06:11:22 16° NW
Cosmos 2228 Rocket 3.5 06:08:49 10° S 06:13:11 64° E 06:17:32 10° NNE
SMAP 4.4 06:10:25 10° NNE 06:14:51 42° E 06:19:16 10° S
Cosmos 1328 Rocket 4.0 06:11:55 10° S 06:16:13 65° E 06:20:35 10° NNE
Iridium 4 Rocket 4.4 06:14:05 10° N 06:18:15 44° E 06:22:42 10° SSE
Helios 1B rocket 3.0 06:21:00 10° SSE 06:25:02 58° ENE 06:29:05 10° N
CSL-04 DEB 4.5 06:21:03 10° NNE 06:25:28 86° WNW 06:29:46 10° SSW
SeaSat 1 3.3 06:21:50 10° NNE 06:26:07 30° NW 06:28:38 19° W
Meteor 1-28 Rocket 4.1 06:23:19 10° SSW 06:26:31 26° W 06:27:09 25° WNW
Cosmos 1515 Rocket 4.0 06:24:24 10° S 06:28:46 66° E 06:33:13 10° NNE
Cosmos 2297 Rocket 3.8 06:27:48 15° NW 06:28:50 16° NNW 06:32:15 10° N
Ariane Rocket 3.0 06:25:17 10° N 06:30:19 59° WNW 06:35:19 10° SSW
OPS 8737 4.4 06:27:08 10° SW 06:30:21 74° SE 06:33:36 10° NE
Meteor 1-29 3.9 06:28:48 10° SSE 06:32:12 49° ENE 06:35:37 10° N
Cosmos 1634 Rocket 4.4 06:27:02 10° S 06:33:16 69° E 06:39:29 10° NNE
Cosmos 2221 3.4 06:29:55 10° SW 06:33:35 27° WNW 06:37:16 10° NNW
CZ-4 R/B 1.5 06:31:12 10° NNE 06:35:18 80° ESE 06:39:27 10° S
YAOGAN 1 3.3 06:31:29 10° NNE 06:35:46 56° E 06:40:02 10° S
SJ-12 3.9 06:34:35 10° NNE 06:38:42 89° ESE 06:42:46 10° SSW
Okean-O 4.5 06:37:40 10° NNW 06:38:57 13° NW 06:38:57 13° NW
Cosmos 2227 Rocket 4.1 06:41:31 11° NW 06:43:06 12° NNW 06:45:14 10° N
ATLAS CENTAUR R/B 3.6 06:40:47 14° NW 06:44:24 53° NNE 06:56:00 10° ESE
GENESIS II 4.2 06:42:31 13° NW 06:46:12 89° ENE 06:50:09 10° SE
Nadezhda 4 Rocket 4.3 06:40:40 10° NNW 06:46:38 45° W 06:52:32 10° SSW
ATLAS CENTAUR R/B 3.7 06:45:44 10° N 06:47:33 12° NNE 06:49:19 10° NE
Cosmos 1898 Rocket 3.5 06:44:35 10° SSW 06:49:52 81° WNW 06:55:14 10° NNE
Cosmos 2026 Rocket 4.0 06:44:08 10° N 06:50:14 89° E 06:56:19 10° S
In-Cosmos 22 Rocket 4.3 06:44:50 10° N 06:50:22 83° ENE 06:56:00 10° SSE
PAYLOAD A 3.9 06:46:25 10° N 06:51:20 58° WNW 06:56:04 10° SSW
TELKOM 3 2.7 06:50:10 17° W 06:51:49 79° N 06:53:56 10° E
IDEFIX/ARIANE 42P 2.6 06:47:57 10° NNE 06:53:15 80° WNW 06:58:31 10° SSW
CORIOLIS 4.4 06:49:33 10° NNE 06:55:01 78° ESE 07:00:28 10° S
Cosmos 2034 Rocket 4.5 06:50:16 10° SW 06:56:00 38° WNW 07:01:49 10° N
Cosmos 1933 Rocket 3.8 06:53:08 10° NNW 06:57:26 47° W 07:01:40 10° SSW
Meteor 2-2 Rocket 4.2 06:52:22 10° SSW 06:58:10 77° WNW 07:03:54 10° N
Cosmos 1943 4.5 06:54:26 11° WNW 06:58:11 21° W 07:02:17 10° SSW
Cosmos 2082 Rocket 4.0 06:55:56 10° NNW 07:00:37 25° NE 07:05:16 10° E
Cosmos 1484 Rocket 3.2 07:00:12 10° NNE 07:04:14 70° ESE 07:08:11 10° S
Cosmos 2150 Rocket 4.0 06:59:08 10° SSW 07:04:32 75° WNW 07:09:54 10° NNE
Cosmos 1092 Rocket 4.4 07:02:44 10° NNW 07:08:34 42° W 07:14:20 10° SSW
Meteor 2-20 4.5 07:02:47 10° NNW 07:08:57 71° W 07:15:04 10° S
Cosmos 389 Rocket 3.8 07:08:18 10° WSW 07:11:13 22° WNW 07:14:08 10° NNW
Cosmos 1726 2.1 07:08:18 10° SSW 07:11:58 62° WNW 07:15:41 10° N
Cosmos 1869 Rocket 3.8 07:11:14 10° N 07:15:44 80° E 07:20:08 10° SSE
SL-27 R/B 2.9 07:12:32 10° NNW 07:15:55 60° ENE 07:19:13 10° SSE
Cosmos 1937 Rocket 3.4 07:11:40 10° SSW 07:16:46 67° WNW 07:21:55 10° NNE
Meteor 2-10 4.4 07:12:07 10° S 07:17:13 71° E 07:22:15 10° NNE
Gbstr 26 Del rocket 4.1 07:11:35 10° WSW 07:17:23 84° SSE 07:24:36 10° ENE
Cosmos 1455 4.1 07:14:25 10° SSE 07:17:49 33° E 07:21:15 10° NNE
Cosmos 1048 Rocket 4.3 07:14:29 10° NNW 07:19:53 75° ENE 07:25:12 10° SSE
Cosmos 2279 Rocket 4.1 07:13:44 10° S 07:19:56 89° E 07:26:11 10° N
Cosmos 2263 Rocket 2.6 07:15:18 10° SW 07:20:42 43° NW 07:26:09 10° NNE
MSX 3.8 07:16:52 10° NNE 07:22:39 74° WNW 07:28:24 10° SSW
